TimeCDT,TemperatureF,Dew PointF,Humidity,Sea Level PressureIn,VisibilityMPH,Wind Direction,Wind SpeedMPH,Gust SpeedMPH,PrecipitationIn,Events,Conditions,WindDirDegrees,DateUTC
12:28 AM,64.4,62.6,94,29.51,10.0,SE,18.4,28.8,N/A,,Mostly Cloudy,140,2013-05-30 05:28:00
12:40 AM,64.4,62.6,94,29.51,10.0,SE,21.9,29.9,N/A,,Mostly Cloudy,140,2013-05-30 05:40:00
12:56 AM,64.0,61.0,90,29.48,10.0,SSE,17.3,28.8,N/A,,Mostly Cloudy,150,2013-05-30 05:56:00
1:03 AM,62.6,60.8,94,29.49,10.0,SSE,13.8,26.5,N/A,,Scattered Clouds,150,2013-05-30 06:03:00
1:48 AM,62.6,60.8,94,29.47,10.0,SSE,15.0,23.0,0.00,,Overcast,160,2013-05-30 06:48:00
1:56 AM,63.0,61.0,93,29.46,10.0,South,15.0,24.2,0.00,,Mostly Cloudy,170,2013-05-30 06:56:00
2:56 AM,63.0,61.0,93,29.43,10.0,SSE,16.1,-,N/A,,Overcast,160,2013-05-30 07:56:00
3:56 AM,63.0,61.0,93,29.44,10.0,South,13.8,-,N/A,,Overcast,170,2013-05-30 08:56:00
4:56 AM,62.1,60.1,93,29.45,10.0,South,12.7,-,N/A,,Overcast,180,2013-05-30 09:56:00
5:56 AM,62.1,60.1,93,29.47,2.0,SSW,9.2,17.3,0.00,Rain,Light Rain,200,2013-05-30 10:56:00
6:00 AM,62.6,60.8,94,29.49,1.5,SSW,11.5,17.3,0.00,Rain,Light Rain,200,2013-05-30 11:00:00
6:08 AM,60.8,60.8,100,29.49,6.0,SSW,10.4,-,0.01,Rain,Light Rain,210,2013-05-30 11:08:00
6:32 AM,60.8,59.0,94,29.50,10.0,South,11.5,-,0.01,,Scattered Clouds,190,2013-05-30 11:32:00
6:52 AM,60.8,59.0,94,29.51,10.0,South,12.7,-,0.01,,Mostly Cloudy,190,2013-05-30 11:52:00
6:56 AM,61.0,59.0,93,29.49,10.0,South,10.4,-,0.01,,Mostly Cloudy,190,2013-05-30 11:56:00
7:37 AM,60.8,59.0,94,29.51,10.0,South,16.1,-,N/A,,Scattered Clouds,190,2013-05-30 12:37:00
7:56 AM,62.1,59.0,90,29.49,10.0,South,16.1,-,N/A,,Partly Cloudy,190,2013-05-30 12:56:00
8:56 AM,64.0,57.9,80,29.48,10.0,SSW,21.9,28.8,N/A,,Partly Cloudy,200,2013-05-30 13:56:00
9:56 AM,66.9,59.0,76,29.47,10.0,South,15.0,24.2,N/A,,Partly Cloudy,170,2013-05-30 14:56:00
10:56 AM,64.0,57.9,80,29.48,10.0,South,17.3,25.3,N/A,,Partly Cloudy,170,2013-05-30 15:56:00
11:56 AM,69.1,60.1,73,29.47,10.0,South,19.6,26.5,0.00,,Scattered Clouds,180,2013-05-30 16:56:00
12:17 PM,68.0,60.8,78,29.49,10.0,South,18.4,25.3,N/A,,Mostly Cloudy,170,2013-05-30 17:17:00
12:56 PM,70.0,61.0,73,29.47,10.0,South,21.9,28.8,N/A,,Mostly Cloudy,180,2013-05-30 17:56:00
1:56 PM,72.0,62.1,71,29.46,10.0,SSE,16.1,25.3,N/A,,Mostly Cloudy,160,2013-05-30 18:56:00
2:33 PM,71.6,62.6,73,29.47,10.0,SSE,20.7,27.6,N/A,,Scattered Clouds,160,2013-05-30 19:33:00
2:56 PM,73.9,64.0,71,29.44,10.0,SSE,13.8,24.2,N/A,,Scattered Clouds,160,2013-05-30 19:56:00
3:56 PM,75.0,62.1,64,29.42,10.0,South,18.4,23.0,N/A,,Mostly Cloudy,170,2013-05-30 20:56:00
4:56 PM,72.0,57.9,61,29.42,10.0,South,18.4,32.2,0.00,,Scattered Clouds,190,2013-05-30 21:56:00
5:00 PM,71.6,59.0,64,29.44,10.0,South,20.7,28.8,N/A,,Scattered Clouds,190,2013-05-30 22:00:00
5:56 PM,71.1,59.0,66,29.42,10.0,South,19.6,34.5,0.00,Rain,Light Rain,180,2013-05-30 22:56:00
6:56 PM,69.1,61.0,75,29.42,10.0,South,16.1,23.0,0.00,,Scattered Clouds,170,2013-05-30 23:56:00
7:56 PM,68.0,61.0,78,29.43,10.0,SSE,15.0,19.6,0.00,Rain,Light Rain,150,2013-05-31 00:56:00
8:10 PM,68.0,60.8,78,29.44,10.0,SSE,11.5,-,0.00,Thunderstorm,Thunderstorm,160,2013-05-31 01:10:00
8:56 PM,68.0,61.0,78,29.43,10.0,SSE,12.7,-,0.00,Thunderstorm,Thunderstorm,150,2013-05-31 01:56:00
9:45 PM,66.2,57.2,73,29.45,10.0,South,10.4,-,0.00,Rain,Light Rain,180,2013-05-31 02:45:00
9:56 PM,66.9,55.0,66,29.44,10.0,SSW,15.0,19.6,0.00,,Partly Cloudy,210,2013-05-31 02:56:00
10:04 PM,66.2,53.6,64,29.46,10.0,South,15.0,20.7,N/A,,Partly Cloudy,170,2013-05-31 03:04:00
10:56 PM,64.0,57.9,80,29.47,10.0,SSE,9.2,-,N/A,,Scattered Clouds,160,2013-05-31 03:56:00
11:56 PM,64.9,51.1,61,29.49,10.0,SSW,12.7,19.6,N/A,,Clear,200,2013-05-31 04:56:00